Theta_e
305 301 298 300 303 304 306 304 305 308 314 310 310 311 315 317 318 317 320 321 323 323 326 325 322 321 321 320 317 315 311 311 310 310 309 309 308 308 310 312 315 315 314 314
303 299 305 307 304 307 308 306 303 308 312 309 309 308 312 314 317 318 316 322 322 321 322 322 320 318 317 318 317 314 312 310 309 309 308 308 307 309 308 310 311 313 314 314
300 305 309 308 305 306 304 305 305 305 309 310 309 305 308 313 317 318 316 317 321 321 320 319 318 317 317 316 315 314 312 310 308 308 309 309 307 307 308 308 308 310 313 314
303 307 306 304 306 306 300 309 309 307 301 296 306 292 302 307 310 314 315 316 317 318 319 317 317 316 316 316 315 313 312 310 309 308 306 305 304 303 305 305 307 309 311 312
303 304 303 302 305 308 305 311 308 306 301 299 301 295 298 306 305 309 312 314 317 316 317 315 316 316 318 316 312 312 311 308 308 307 306 305 304 304 306 306 306 307 308 310
304 308 307 307 308 311 312 307 303 302 298 292 297 297 298 302 305 309 312 315 315 312 312 313 313 315 315 314 312 311 309 307 308 307 306 306 305 304 304 304 305 306 306 308
304 306 307 309 307 307 304 298 291 291 292 290 301 299 299 307 311 313 313 309 311 310 310 310 310 312 313 311 311 310 308 306 307 307 307 306 305 305 304 304 304 304 304 305
297 298 306 310 304 301 300 298 292 287 288 292 301 296 301 311 314 315 312 309 308 309 308 309 310 312 311 311 310 310 307 306 306 306 306 306 306 306 306 305 306 305 304 305
298 300 311 312 308 307 302 297 299 295 296 294 297 302 308 310 311 310 307 307 307 308 308 308 309 310 311 311 309 308 307 307 307 307 306 306 307 307 306 306 305 306 305 308
305 299 309 312 311 311 305 305 295 293 288 287 295 298 299 305 308 311 306 306 309 310 308 309 308 309 309 309 308 307 307 306 306 306 306 307 307 308 307 307 306 305 305 306
308 303 304 308 305 303 302 298 297 295 296 291 290 295 307 307 310 308 307 307 310 311 308 308 308 308 307 306 305 307 307 306 306 306 306 306 307 308 308 307 306 306 305 305
310 303 299 302 307 311 303 300 298 293 292 295 295 295 309 309 311 310 309 308 309 309 308 307 307 307 306 304 304 306 307 306 306 307 306 306 306 307 306 307 306 306 305 305
307 300 295 297 301 304 302 302 300 298 296 294 295 296 312 310 311 311 307 307 308 309 308 306 306 306 306 305 305 305 306 307 307 307 306 305 306 305 306 307 307 306 306 306
311 301 298 294 297 301 302 304 303 299 294 295 297 300 306 308 309 308 305 305 307 309 307 306 306 306 306 306 306 307 305 306 307 307 305 305 305 305 305 307 307 307 306 306
304 299 301 302 306 306 305 303 303 299 301 298 301 304 307 308 309 309 308 305 306 307 306 306 305 305 306 305 306 307 307 307 307 306 305 305 305 306 307 307 308 308 306 306
305 298 302 302 308 307 305 305 304 305 306 306 306 303 310 311 310 311 308 307 307 308 308 307 307 306 307 306 306 308 307 307 306 305 306 306 307 307 307 308 308 307 306 305
304 301 298 296 305 303 299 303 307 307 309 307 302 306 310 310 311 310 308 308 308 308 308 308 308 307 307 307 308 306 306 307 306 305 307 308 308 307 307 308 307 306 306 305
303 301 298 296 300 291 302 310 310 309 309 308 308 310 313 313 313 310 310 309 309 309 309 309 309 307 307 307 306 306 307 306 306 305 306 307 307 308 308 306 306 305 305 305
308 303 299 296 294 300 304 308 308 306 304 309 308 309 311 310 309 307 308 309 309 310 310 310 309 308 307 308 307 307 305 306 306 306 305 306 307 306 307 307 304 304 305 305
310 307 302 298 294 292 303 311 313 310 299 308 309 310 309 308 303 304 308 311 312 312 311 310 309 309 308 308 307 305 305 304 304 306 307 307 307 307 307 307 306 303 308 307
302 303 300 298 296 302 309 315 316 300 300 307 310 309 308 306 307 308 309 311 312 312 312 311 309 308 309 309 306 305 305 304 306 307 308 308 307 306 307 306 305 304 306 307
301 300 299 301 298 297 315 315 307 311 311 310 309 311 311 312 309 309 310 311 311 311 312 312 309 309 310 310 307 306 305 307 307 307 308 308 307 308 307 305 305 305 307 309
299 305 303 304 302 311 315 314 317 313 311 310 312 315 315 310 309 310 310 310 311 312 313 313 311 309 310 310 309 306 308 308 308 307 306 306 307 307 307 305 305 305 306 309
308 311 305 307 310 311 316 318 317 314 312 313 317 316 314 311 311 310 309 311 311 311 312 313 311 310 310 310 311 310 310 310 308 306 306 306 306 307 307 307 306 305 305 305
307 311 308 308 312 315 314 317 318 319 318 314 320 319 316 316 313 312 310 312 311 311 310 312 313 312 312 312 311 312 312 311 307 306 306 307 307 307 307 306 306 306 306 306
309 307 306 305 312 311 311 314 322 320 319 318 315 317 319 317 315 313 312 312 311 312 310 311 312 312 314 313 313 313 313 311 308 306 306 307 307 308 307 306 306 301 300 299
Wind_Speed
3 7 5 5 10 4 8 6 7 2 2 8 8 5 2 3 2 4 4 5 8 7 6 5 4 5 7 5 6 7 6 6 5 4 3 4 4 4 4 5 6 6 6 7
9 4 7 8 3 9 10 15 2 1 5 7 4 4 1 4 4 1 4 7 8 7 7 6 5 4 6 5 4 3 5 5 5 3 2 2 1 2 2 3 5 6 7 6
5 10 5 3 6 11 3 10 9 7 8 9 7 2 4 4 4 2 2 2 4 10 10 7 5 5 6 5 3 2 4 5 5 6 4 4 3 3 4 4 4 4 6 6
3 5 5 9 1 5 4 6 7 13 5 3 3 4 5 4 7 6 8 4 6 8 6 6 6 6 5 4 3 3 4 4 4 5 5 3 1 1 2 3 3 4 6 6
9 7 3 2 7 5 4 11 7 4 5 5 2 3 1 2 5 7 7 7 7 8 9 8 7 6 5 5 4 4 4 3 4 4 4 2 2 1 2 2 4 4 4 6
7 4 3 1 7 7 11 8 8 4 3 4 5 3 5 5 7 5 3 7 7 10 8 6 4 7 6 4 3 4 4 1 3 2 2 3 3 2 2 2 3 3 3 4
7 5 3 7 13 4 8 7 3 3 5 4 4 2 7 6 5 6 8 7 10 9 7 6 7 7 6 6 5 4 3 2 0 1 2 2 1 1 1 2 2 4 3 3
2 7 4 4 3 9 5 7 6 3 3 3 4 2 4 5 6 3 8 10 8 9 7 7 7 8 7 6 6 5 4 3 2 2 1 2 1 1 0 1 2 2 2 2
4 5 5 3 2 6 3 4 4 9 3 3 3 6 3 6 4 7 8 6 7 6 6 7 7 8 7 7 7 7 6 4 4 2 1 2 3 3 2 3 2 2 3 3
6 3 2 3 4 7 8 5 4 4 4 1 3 4 6 5 7 7 8 8 8 8 7 6 6 7 6 6 5 6 6 6 4 3 1 2 4 3 2 3 4 4 4 5
6 4 3 0 1 5 4 1 6 6 4 5 1 7 6 11 11 11 10 12 13 11 8 8 7 6 6 5 5 6 6 5 4 3 1 2 3 3 2 3 3 3 3 5
2 6 3 3 1 1 2 4 6 7 3 2 4 8 3 9 9 10 8 12 10 8 8 7 7 7 7 7 5 6 6 6 6 3 1 2 2 3 2 3 3 3 4 4
5 2 4 9 8 3 3 4 4 5 4 5 6 7 3 2 6 7 10 11 10 9 8 7 6 7 7 6 5 5 5 7 6 4 3 2 3 3 3 2 2 3 4 4
8 3 7 8 8 3 2 4 5 5 4 5 6 3 2 5 8 7 8 9 10 10 9 7 6 7 7 6 6 4 4 5 5 6 4 3 3 3 4 3 2 2 2 3
5 4 3 2 5 3 4 4 7 6 6 7 6 9 9 10 13 15 11 8 10 10 9 7 7 7 7 6 6 5 5 3 2 5 5 5 4 4 4 2 3 3 1 1
2 2 1 2 6 2 2 1 7 2 4 4 6 4 7 6 5 6 10 12 13 13 12 9 7 6 7 8 7 6 5 4 2 4 5 4 5 4 3 3 4 3 2 2
3 5 4 3 4 5 5 3 4 4 4 8 6 10 6 5 9 10 10 15 16 13 10 11 9 8 8 8 7 7 6 2 2 4 3 4 4 4 4 3 4 4 3 3
5 5 4 3 4 1 7 4 6 7 3 5 2 5 10 12 11 3 6 14 11 10 10 8 7 7 7 5 5 4 4 4 4 5 4 4 4 5 4 3 5 4 3 4
2 5 4 3 2 5 3 3 5 8 3 2 3 3 1 4 5 3 5 7 8 10 8 7 6 6 6 7 7 6 4 4 4 5 6 6 5 5 5 5 6 5 5 4
6 8 6 2 2 4 5 6 6 5 2 4 4 6 7 4 3 6 5 9 8 8 7 9 8 5 7 7 6 6 6 5 6 6 7 7 5 5 6 5 7 4 3 5
5 4 4 2 1 6 6 1 1 4 9 4 6 5 6 3 6 4 7 6 7 9 11 8 7 8 9 7 7 7 6 7 8 5 5 6 5 6 5 5 3 4 5 6
5 5 2 2 2 6 3 3 0 8 1 6 5 6 7 3 6 7 8 9 10 10 8 8 8 8 7 7 7 7 8 8 7 6 6 6 6 5 3 5 6 6 6 6
2 7 7 9 7 3 3 5 3 6 6 6 5 7 9 8 7 10 8 9 10 11 10 8 9 8 7 7 7 8 9 7 7 6 7 7 6 6 5 5 6 5 5 4
4 1 3 3 2 4 6 4 4 5 5 5 6 8 8 9 8 10 7 8 9 8 9 8 7 7 8 7 8 11 6 6 6 7 7 6 6 7 6 4 4 4 5 5
4 6 4 4 5 5 4 4 2 2 3 5 4 8 12 7 9 11 9 10 10 10 7 7 10 10 11 7 9 9 7 6 7 7 6 6 6 6 6 5 5 5 6 7
5 7 6 6 5 5 5 5 3 5 6 7 7 5 7 10 12 7 9 10 10 10 7 7 8 7 11 7 9 8 7 7 7 7 6 6 5 5 5 5 6 10 14 13
Wind_Direction
23 49 298 234 216 134 116 109 119 174 198 70 73 81 238 284 212 248 142 154 169 153 145 153 135 123 101 74 64 50 45 6 26 22 19 14 17 349 3 6 7 8 3 355
14 314 287 278 127 109 101 108 49 12 87 89 102 92 313 278 268 242 173 192 172 142 148 167 154 125 91 104 86 66 57 22 15 30 9 50 359 348 314 326 4 3 351 343
154 250 307 127 119 120 171 148 186 147 109 53 114 358 289 295 305 242 263 67 138 168 163 174 169 146 113 116 142 140 82 42 30 39 30 20 22 356 360 356 335 334 332 339
266 284 320 122 184 119 134 152 136 130 93 179 192 281 210 229 271 254 249 232 195 167 152 162 183 148 146 157 163 150 102 61 60 64 62 64 95 11 276 275 308 326 339 346
257 295 356 103 213 150 133 109 128 97 85 115 345 110 203 96 251 234 233 215 193 172 164 180 189 155 160 165 170 143 110 75 77 78 97 94 53 313 294 303 355 345 344 350
262 259 125 220 27 114 125 82 50 63 81 48 308 91 303 215 203 209 198 216 166 168 166 180 156 139 159 169 153 144 133 85 81 98 103 81 66 6 8 332 8 344 333 336
332 329 316 127 75 331 78 69 29 2 13 216 311 61 227 249 219 183 177 174 167 147 148 166 160 157 174 178 181 170 162 166 20 350 60 23 343 51 48 357 6 11 343 339
116 350 6 352 135 175 172 145 147 230 185 261 331 293 275 230 166 156 156 162 137 150 159 185 175 172 180 182 191 180 181 201 231 238 299 318 303 288 324 2 8 6 353 341
141 293 299 342 98 126 172 38 165 107 62 79 279 297 336 73 121 122 145 137 150 150 180 180 166 173 181 183 190 189 188 219 244 225 257 346 337 360 1 19 20 359 3 337
200 113 314 294 50 19 112 155 40 23 126 225 285 273 237 186 174 174 151 166 178 173 179 167 175 166 178 182 196 189 192 199 213 220 279 331 332 351 15 27 25 22 11 14
132 118 257 97 84 176 35 45 51 108 111 145 220 260 221 196 187 181 174 172 183 183 179 181 169 172 160 166 193 194 202 207 224 234 272 324 345 2 38 32 17 18 7 14
170 132 150 233 79 184 137 162 129 116 219 127 143 275 293 229 194 162 166 178 184 182 181 171 170 173 167 176 186 197 212 215 222 226 235 300 315 356 27 17 3 6 14 17
181 22 53 349 354 349 180 161 101 108 85 190 136 260 5 213 186 167 164 177 176 171 165 163 169 185 180 189 196 190 202 228 225 218 228 284 296 330 315 324 339 11 16 25
85 114 153 183 210 172 207 159 165 125 116 175 221 239 226 223 184 178 180 174 167 170 178 175 184 195 185 195 208 204 207 225 238 216 224 240 272 291 292 279 324 345 6 32
103 138 176 220 264 207 236 182 179 169 175 146 223 189 206 205 197 192 174 150 157 177 186 183 192 189 189 197 222 229 248 197 225 213 216 235 244 265 287 314 309 320 10 51
25 176 121 339 326 303 65 246 157 121 109 58 142 263 204 180 92 156 182 172 181 189 187 186 188 176 189 201 213 222 245 248 202 178 217 238 227 242 275 309 311 324 318 340
99 120 82 245 334 345 353 187 178 142 154 139 168 224 157 171 203 210 181 187 193 188 169 186 181 187 194 202 204 212 227 196 187 189 211 208 227 237 260 285 311 314 302 286
130 106 94 202 1 341 249 314 155 122 94 250 193 172 182 199 207 143 191 190 176 167 172 176 177 188 198 203 204 209 190 194 197 206 215 223 238 245 266 300 286 287 275 262
86 114 88 132 188 276 66 259 142 133 248 327 207 118 105 93 70 6 161 151 154 164 175 173 180 183 187 188 198 180 176 197 205 218 229 235 238 263 280 271 284 269 256 258
46 59 109 132 136 211 249 293 135 102 311 200 179 184 153 119 149 255 178 137 138 144 153 165 183 186 179 206 180 170 189 203 226 223 230 231 237 255 274 263 274 268 256 264
20 10 81 44 6 289 252 145 284 81 243 156 158 170 158 170 197 188 140 102 139 163 166 168 178 188 203 180 170 190 200 223 228 231 241 234 237 253 253 282 268 295 306 292
142 128 171 102 72 307 356 352 200 220 359 153 164 184 189 187 136 145 154 153 157 162 171 183 183 208 210 179 174 200 211 229 225 222 234 240 243 249 255 257 283 290 286 291
215 178 178 173 219 264 250 215 263 188 158 183 184 175 161 152 173 172 175 169 176 180 187 185 195 205 218 198 194 199 232 211 215 217 239 251 266 266 261 261 278 291 279 283
220 236 156 69 270 229 294 256 191 202 180 182 189 165 162 169 173 183 166 178 185 185 193 186 176 209 227 215 211 222 222 205 201 221 238 251 256 271 278 260 249 262 272 272
197 165 136 260 292 300 348 336 145 120 116 183 185 171 176 179 201 183 189 192 194 194 189 178 193 211 225 214 224 230 221 194 213 226 239 247 241 247 265 257 249 245 248 213
192 173 157 217 220 155 248 292 214 158 216 219 185 192 205 187 194 187 205 196 195 201 179 188 201 209 230 217 230 233 212 193 208 225 238 236 238 245 240 251 288 236 241 265